This is the latest recevied weather packets stored in our database for station/object W0WC. If no packets are shown the sender has not sent any weather packets the latest 10 day(s).
| Time | Temp. | Humidity | Pressure | Rain* | Wind** | Luminosity | Snow |
|---|---|---|---|---|---|---|---|
| 1777996729 | 12.22° C | 82% | 1008.8 hPa | 0 mm | - | 209 W/m² | - |
| 1777996425 | 12.22° C | 82% | 1008.7 hPa | 0 mm | - | 203 W/m² | - |
| 1777996122 | 12.22° C | 83% | 1008.5 hPa | 0 mm | - | 197 W/m² | - |
| 1777995818 | 11.67° C | 84% | 1008.6 hPa | 0 mm | - | 144 W/m² | - |
| 1777995514 | 11.67° C | 85% | 1008.6 hPa | 0 mm | - | 136 W/m² | - |
| 1777995211 | 11.67° C | 85% | 1008.7 hPa | 0 mm | - | 137 W/m² | - |
| 1777994908 | 11.67° C | 86% | 1009 hPa | 0 mm | - | 114 W/m² | - |
| 1777994605 | 11.67° C | 87% | 1008.7 hPa | 0 mm | - | 111 W/m² | - |
| 1777994300 | 11.67° C | 87% | 1009 hPa | 0 mm | - | 88 W/m² | - |
| 1777993997 | 11.67° C | 88% | 1009.2 hPa | 0 mm | - | 71 W/m² | - |
| 1777993694 | 11.67° C | 88% | 1009.2 hPa | 0 mm | - | 70 W/m² | - |
| 1777993391 | 11.67° C | 88% | 1009 hPa | 0 mm | - | 61 W/m² | - |
| 1777993091 | 11.67° C | 88% | 1009.1 hPa | 0 mm | - | 58 W/m² | - |
| 1777992790 | 12.22° C | 89% | 1009.1 hPa | 0 mm | - | 73 W/m² | - |
| 1777992487 | 12.22° C | 89% | 1008.7 hPa | 0 mm | - | 64 W/m² | - |
| 1777992186 | 12.22° C | 88% | 1008.4 hPa | 0 mm | - | 74 W/m² | - |
| 1777991882 | 12.22° C | 88% | 1008.2 hPa | 0 mm | - | 90 W/m² | - |
| 1777991579 | 12.22° C | 88% | 1008.1 hPa | 0 mm | - | 58 W/m² | - |
| 1777991276 | 12.78° C | 88% | 1008 hPa | 0 mm | - | 53 W/m² | - |
| 1777990973 | 12.78° C | 88% | 1007.7 hPa | 0 mm | - | 71 W/m² | - |
| 1777990671 | 12.78° C | 88% | 1007.6 hPa | 0 mm | - | 84 W/m² | - |
| 1777990368 | 12.78° C | 89% | 1007.5 hPa | 0 mm | - | 80 W/m² | - |
| 1777990064 | 12.78° C | 89% | 1007 hPa | 0 mm | - | 75 W/m² | - |
| 1777989761 | 12.22° C | 90% | 1006.9 hPa | 0 mm | - | 116 W/m² | - |
| 1777989458 | 12.22° C | 90% | 1006.8 hPa | 0 mm | - | 106 W/m² | - |
* Rain latest hour (hover to see other rain measurements)
** Current wind speed in m/s (hover to see current wind gust speed)